User: anonymous   Login
Location: Deer Lake
(49.1830°N, 57.4330°W)
Time: 05:07:38
(UTC-02:-30)
Language:

NOSS 3-1 (C) - Orbit

View from above orbital plane
View from above orbital plane
View from above satellite
View from above satellite

Ground track
Ground track

The orbit data is extracted from the following two-line orbital elements,

1 26907U 01040C   17285.48382114 0.00000000  00000-0  00000-0 0    06
2 26907  63.4088  88.9706 0384000 359.0861   0.9138 13.41271519    05
Epoch (UTC): 12 October 2017 11:36:42
Eccentricity: 0.0384000
inclination: 63.4088°
perigee height: 817 km
apogee height: 1392 km
right ascension of ascending node: 88.9706°
argument of perigee: 359.0861°
revolutions per day: 13.41271519
mean anomaly at epoch: 0.9138°
orbit number at epoch: 0

The dashed part of the orbit path shows where the satellite is in the earth's shadow,  

DLR